User: anonymous   Login
Location: Unspecified
(0.0000°N, 0.0000°E)
Time: 01:12:53
(UTC+00:00)
Language:

AGILE - Orbit

View from above orbital plane
View from above orbital plane
View from above satellite
View from above satellite

Ground track
Ground track

The orbit data is extracted from the following two-line orbital elements,

1 31135U 07013A   17022.98326798  .00002728  00000-0  55186-4 0  9996
2 31135   2.4665 159.2250 0013338 260.6423  99.2122 15.29165731541446
Epoch (UTC): 22 January 2017 23:35:54
Eccentricity: 0.0013338
inclination: 2.4665°
perigee height: 469 km
apogee height: 487 km
right ascension of ascending node: 159.2250°
argument of perigee: 260.6423°
revolutions per day: 15.29165731
mean anomaly at epoch: 99.2122°
orbit number at epoch: 54144

The dashed part of the orbit path shows where the satellite is in the earth's shadow,  

DLR